Location: Al Mulaqqa?ah
(24.1833°N, 32.8833°E)
Time: 09:45:52
(UTC+00:00)

Cosmos 1656 Rocket - Pass Details

Date: 26 September 2021
Orbit: 797 x 845 km, 71.1° (Epoch: 15 October)

Event Time Altitude Azimuth Distance (km) Brightness Sun altitude
Rises 15:56:45 0° 181° (S) 3,374 6.8 -4.5°
Reaches altitude 10° 15:59:18 10° 174° (S) 2,437 6.1 -5.1°
Maximum altitude 16:04:34 43° 104° (ESE) 1,146 4.0 -6.3°
Drops below altitude 10° 16:09:46 10° 34° (NE) 2,416 5.8 -7.5°
Sets 16:12:16 0° 28° (NNE) 3,343 6.5 -8.1°
